�������l�o���
Date,Time,MP-1(��Sv/h),MP-2(��Sv/h),MP-3(��Sv/h),MP-4(��Sv/h),MP-5(��Sv/h),MP-6(��Sv/h),MP-7(��Sv/h),MP-8(��Sv/h),����,����(m/s),���J
2017/06/08,00:00,1.028,1.642,1.094,1.953,1.343,0.545,0.990,0.911,��,10.8,�L
2017/06/08,00:10,1.030,1.640,1.099,1.953,1.344,0.545,0.987,0.913,��,10.2,�L
2017/06/08,00:20,1.027,1.637,1.096,1.955,1.340,0.545,0.988,0.913,��,9.8,�L
2017/06/08,00:30,1.025,1.633,1.098,1.951,1.337,0.548,0.986,0.912,��,9.3,�L
2017/06/08,00:40,1.024,1.626,1.097,1.949,1.333,0.546,0.985,0.909,��,10.9,�L
2017/06/08,00:50,1.023,1.625,1.089,1.942,1.326,0.547,0.982,0.906,��,10.9,�L
2017/06/08,01:00,1.021,1.618,1.090,1.939,1.319,0.547,0.981,0.906,��,10.9,�L
2017/06/08,01:10,1.017,1.611,1.088,1.935,1.316,0.546,0.979,0.904,��,10.2,�L
2017/06/08,01:20,1.014,1.606,1.083,1.924,1.311,0.546,0.978,0.903,��,9.7,�L
2017/06/08,01:30,1.011,1.603,1.079,1.918,1.307,0.545,0.977,0.904,��,9.7,�L
2017/06/08,01:40,1.007,1.596,1.075,1.914,1.303,0.544,0.975,0.902,��,8.4,�L
2017/06/08,01:50,1.006,1.591,1.074,1.910,1.303,0.541,0.975,0.900,��,8.9,�L
2017/06/08,02:00,1.004,1.589,1.074,1.908,1.297,0.543,0.975,0.900,��,9.2,�L
2017/06/08,02:10,1.003,1.586,1.070,1.904,1.297,0.542,0.973,0.899,��,9.0,�L
2017/06/08,02:20,1.001,1.587,1.068,1.905,1.295,0.540,0.972,0.898,��,9.1,�L
2017/06/08,02:30,1.000,1.583,1.067,1.899,1.293,0.540,0.972,0.898,��,8.8,�L
2017/06/08,02:40,0.996,1.579,1.065,1.897,1.291,0.539,0.971,0.898,��,8.3,�L
2017/06/08,02:50,0.993,1.576,1.064,1.895,1.289,0.539,0.969,0.897,��,7.9,�L
2017/06/08,03:00,0.992,1.576,1.061,1.891,1.289,0.538,0.971,0.896,��,8.0,�L
2017/06/08,03:10,0.991,1.575,1.060,1.891,1.285,0.536,0.970,0.899,��,8.6,�L
2017/06/08,03:20,0.990,1.575,1.061,1.888,1.284,0.538,0.970,0.898,��,9.1,�L
2017/06/08,03:30,0.990,1.572,1.059,1.886,1.284,0.536,0.969,0.896,��,10.6,�L
2017/06/08,03:40,0.987,1.572,1.058,1.887,1.282,0.536,0.968,0.896,��,11.1,�L
2017/06/08,03:50,0.987,1.572,1.057,1.885,1.282,0.535,0.972,0.898,��,11.0,�L
2017/06/08,04:00,0.987,1.572,1.056,1.884,1.282,0.532,0.969,0.895,��,10.6,��
2017/06/08,04:10,0.986,1.574,1.053,1.885,1.284,0.533,0.968,0.900,��,12.0,��
2017/06/08,04:20,0.987,1.574,1.056,1.880,1.283,0.533,0.969,0.897,��,13.9,��
2017/06/08,04:30,0.984,1.571,1.053,1.882,1.283,0.533,0.971,0.898,��,13.1,��
2017/06/08,04:40,0.984,1.572,1.053,1.882,1.283,0.532,0.969,0.896,��,11.7,��
2017/06/08,04:50,0.984,1.573,1.054,1.885,1.282,0.530,0.970,0.898,��,13.8,��
2017/06/08,05:00,0.985,1.570,1.053,1.885,1.285,0.529,0.969,0.896,��,13.6,��
2017/06/08,05:10,0.985,1.571,1.055,1.884,1.285,0.532,0.971,0.896,��쓌,14.7,��
2017/06/08,05:20,0.985,1.568,1.054,1.883,1.282,0.531,0.969,0.896,��,11.6,��
2017/06/08,05:30,0.984,1.568,1.053,1.882,1.282,0.531,0.972,0.899,��,11.0,��
2017/06/08,05:40,0.986,1.572,1.055,1.883,1.284,0.530,0.971,0.897,��,10.6,��
2017/06/08,05:50,0.983,1.568,1.055,1.882,1.281,0.530,0.972,0.897,��,10.5,��
2017/06/08,06:00,0.984,1.571,1.056,1.886,1.283,0.531,0.971,0.898,��,12.4,��
2017/06/08,06:10,0.985,1.575,1.055,1.887,1.282,0.530,0.970,0.897,��,12.1,��
2017/06/08,06:20,0.984,1.571,1.055,1.884,1.282,0.530,0.970,0.896,��쓌,12.4,��
2017/06/08,06:30,0.985,1.571,1.057,1.884,1.284,0.529,0.971,0.896,��쓌,12.1,��
2017/06/08,06:40,0.985,1.571,1.054,1.886,1.284,0.531,0.969,0.897,��쓌,11.6,��
2017/06/08,06:50,0.985,1.573,1.057,1.885,1.285,0.531,0.970,0.899,��,9.3,��
2017/06/08,07:00,0.984,1.573,1.055,1.884,1.282,0.530,0.972,0.897,��,9.0,�L
2017/06/08,07:10,0.986,1.572,1.056,1.884,1.284,0.531,0.970,0.900,��,8.9,�L
2017/06/08,07:20,0.988,1.573,1.054,1.886,1.285,0.530,0.973,0.898,��,8.8,��
2017/06/08,07:30,0.986,1.572,1.055,1.888,1.284,0.531,0.972,0.899,��,8.4,��
2017/06/08,07:40,0.985,1.574,1.056,1.884,1.284,0.531,0.974,0.899,��,8.5,�L
2017/06/08,07:50,0.987,1.576,1.056,1.886,1.286,0.530,0.969,0.898,��,9.1,��
2017/06/08,08:00,0.983,1.574,1.056,1.885,1.284,0.531,0.973,0.896,��,9.2,�L
2017/06/08,08:10,0.985,1.575,1.057,1.887,1.285,0.530,0.974,0.896,��,7.6,��
2017/06/08,08:20,0.987,1.576,1.055,1.884,1.286,0.531,0.971,0.897,��,7.6,��
2017/06/08,08:30,0.986,1.577,1.058,1.887,1.288,0.531,0.972,0.898,��,9.7,��
2017/06/08,08:40,0.986,1.578,1.056,1.889,1.287,0.531,0.974,0.898,��,9.6,��
2017/06/08,08:50,0.986,1.575,1.055,1.887,1.287,0.531,0.972,0.896,��,8.9,��
2017/06/08,09:00,0.989,1.575,1.057,1.891,1.286,0.531,0.974,0.897,��,8.1,��
2017/06/08,09:10,0.989,1.577,1.053,1.888,1.289,0.531,0.974,0.896,��,7.9,��
2017/06/08,09:20,0.987,1.577,1.049,1.891,1.289,0.532,0.974,0.898,��,7.7,��
2017/06/08,09:30,0.988,1.578,1.047,1.888,1.291,0.531,0.975,0.899,��쓌,5.5,��
2017/06/08,09:40,0.986,1.577,1.047,1.890,1.288,0.532,0.976,0.899,��,8.1,��
2017/06/08,09:50,0.987,1.579,1.049,1.891,1.290,0.532,0.974,0.897,��,8.5,��
2017/06/08,10:00,0.990,1.579,1.048,1.893,1.291,0.531,0.974,0.897,��,6.6,��
2017/06/08,10:10,0.988,1.578,1.052,1.892,1.293,0.532,0.974,0.898,��,6.8,��
2017/06/08,10:20,0.989,1.577,1.050,1.891,1.293,0.534,0.974,0.897,��,8.4,��
2017/06/08,10:30,0.988,1.581,1.051,1.890,1.294,0.532,0.975,0.899,��,9.4,��
2017/06/08,10:40,0.990,1.580,1.053,1.891,1.293,0.532,0.976,0.899,��,8.8,��
2017/06/08,10:50,0.989,1.580,1.052,1.891,1.293,0.532,0.975,0.898,��,9.1,��
2017/06/08,11:00,0.991,1.583,1.056,1.891,1.295,0.534,0.976,0.899,��,8.3,��
2017/06/08,11:10,0.993,1.584,1.053,1.893,1.297,0.533,0.976,0.900,��,8.2,��
2017/06/08,11:20,0.991,1.586,1.057,1.893,1.295,0.532,0.975,0.900,��,9.7,��
2017/06/08,11:30,0.994,1.585,1.056,1.893,1.296,0.532,0.976,0.898,��,9.5,��
2017/06/08,11:40,0.993,1.584,1.056,1.892,1.295,0.533,0.979,0.898,��,8.3,��
2017/06/08,11:50,0.993,1.583,1.057,1.898,1.301,0.534,0.977,0.899,��,9.4,��
2017/06/08,12:00,0.995,1.588,1.059,1.894,1.301,0.535,0.979,0.899,��,9.1,��
2017/06/08,12:10,0.995,1.587,1.061,1.891,1.300,0.535,0.978,0.898,��,10.6,��
2017/06/08,12:20,0.997,1.592,1.062,1.893,1.300,0.536,0.978,0.900,��,10.8,��
2017/06/08,12:30,0.995,1.591,1.061,1.895,1.302,0.535,0.978,0.901,��,9.9,��
2017/06/08,12:40,0.995,1.587,1.063,1.896,1.302,0.535,0.977,0.901,��,9.5,��
2017/06/08,12:50,0.998,1.592,1.062,1.894,1.304,0.535,0.979,0.901,��,10.9,��
2017/06/08,13:00,1.000,1.595,1.062,1.897,1.304,0.536,0.978,0.901,��,11.7,��
2017/06/08,13:10,0.998,1.595,1.060,1.899,1.305,0.536,0.979,0.900,��,10.8,��
2017/06/08,13:20,1.000,1.597,1.063,1.899,1.304,0.536,0.981,0.902,��,9.3,��
2017/06/08,13:30,0.998,1.596,1.064,1.896,1.305,0.537,0.978,0.902,��,9.1,��
2017/06/08,13:40,1.001,1.597,1.062,1.898,1.310,0.535,0.981,0.902,��,9.6,��
2017/06/08,13:50,1.003,1.594,1.065,1.899,1.307,0.535,0.981,0.901,��,7.2,��
2017/06/08,14:00,1.002,1.599,1.066,1.899,1.308,0.536,0.979,0.901,��,9.1,��
2017/06/08,14:10,1.004,1.597,1.064,1.900,1.309,0.535,0.981,0.902,��,9.2,��
2017/06/08,14:20,1.003,1.599,1.066,1.904,1.310,0.536,0.979,0.901,��,11.8,��
2017/06/08,14:30,1.002,1.598,1.062,1.904,1.312,0.535,0.979,0.903,��,11.0,��
2017/06/08,14:40,1.004,1.602,1.066,1.902,1.308,0.536,0.981,0.903,��,8.9,��
2017/06/08,14:50,1.002,1.599,1.067,1.902,1.308,0.538,0.980,0.903,��,8.9,��
2017/06/08,15:00,1.005,1.602,1.069,1.902,1.310,0.538,0.979,0.904,��,8.5,��
2017/06/08,15:10,1.004,1.600,1.067,1.904,1.308,0.537,0.979,0.902,��,8.1,��
2017/06/08,15:20,1.005,1.601,1.069,1.904,1.309,0.537,0.981,0.903,��,7.1,��
2017/06/08,15:30,1.005,1.601,1.066,1.902,1.311,0.535,0.980,0.901,��,7.0,��
2017/06/08,15:40,1.007,1.601,1.066,1.905,1.311,0.537,0.980,0.902,��,7.8,��
2017/06/08,15:50,1.007,1.602,1.067,1.905,1.310,0.536,0.981,0.900,��,6.9,��
2017/06/08,16:00,1.006,1.604,1.068,1.904,1.311,0.536,0.980,0.902,��,6.2,��
2017/06/08,16:10,1.005,1.601,1.068,1.905,1.310,0.538,0.982,0.900,��,5.5,��
2017/06/08,16:20,1.004,1.599,1.065,1.901,1.309,0.538,0.981,0.902,��,5.3,��
2017/06/08,16:30,1.005,1.602,1.068,1.902,1.310,0.537,0.980,0.902,��,5.1,��
2017/06/08,16:40,1.004,1.605,1.070,1.905,1.310,0.535,0.981,0.901,��,5.4,��
2017/06/08,16:50,1.005,1.602,1.071,1.906,1.308,0.536,0.981,0.902,��쐼,5.1,��
2017/06/08,17:00,1.003,1.603,1.070,1.908,1.308,0.537,0.982,0.903,��쐼,4.9,��
2017/06/08,17:10,1.005,1.602,1.071,1.906,1.308,0.536,0.980,0.902,��,4.8,��
2017/06/08,17:20,1.007,1.604,1.071,1.906,1.311,0.536,0.979,0.903,��,5.2,��
2017/06/08,17:30,1.004,1.604,1.071,1.906,1.310,0.536,0.981,0.904,��쐼,5.6,��
2017/06/08,17:40,1.006,1.603,1.073,1.906,1.311,0.537,0.979,0.904,�쐼,4.2,��
2017/06/08,17:50,1.007,1.604,1.073,1.908,1.311,0.536,0.981,0.903,�쐼,4.1,��
2017/06/08,18:00,1.008,1.603,1.072,1.911,1.312,0.537,0.982,0.902,���쐼,3.3,��
2017/06/08,18:10,1.007,1.606,1.074,1.906,1.310,0.537,0.982,0.901,��,3.3,��
2017/06/08,18:20,1.004,1.604,1.073,1.909,1.310,0.538,0.980,0.903,�k�k��,1.4,��
2017/06/08,18:30,1.003,1.606,1.072,1.908,1.311,0.537,0.982,0.904,�k,2.3,��
2017/06/08,18:40,1.004,1.609,1.072,1.906,1.311,0.536,0.981,0.903,�k,3.1,�L
2017/06/08,18:50,1.006,1.604,1.073,1.908,1.311,0.537,0.982,0.904,�k,3.3,�L
2017/06/08,19:00,1.006,1.604,1.074,1.914,1.310,0.538,0.982,0.907,�k��,5.9,��
2017/06/08,19:10,1.007,1.608,1.074,1.907,1.311,0.539,0.982,0.906,���k��,5.9,��
2017/06/08,19:20,1.009,1.607,1.071,1.909,1.311,0.536,0.982,0.905,�k��,5.6,��
2017/06/08,19:30,1.009,1.607,1.075,1.912,1.313,0.536,0.981,0.906,�k��,4.6,��
2017/06/08,19:40,1.011,1.607,1.075,1.910,1.311,0.536,0.981,0.905,���k��,4.4,��
2017/06/08,19:50,1.007,1.607,1.076,1.912,1.314,0.537,0.982,0.906,���k��,4.6,��
2017/06/08,20:00,1.009,1.607,1.073,1.911,1.312,0.538,0.980,0.907,��,5.3,��
2017/06/08,20:10,1.010,1.609,1.076,1.909,1.314,0.538,0.981,0.905,���k��,6.3,��
2017/06/08,20:20,1.011,1.607,1.074,1.908,1.315,0.537,0.982,0.906,���k��,5.1,��
2017/06/08,20:30,1.008,1.605,1.072,1.910,1.312,0.537,0.982,0.906,���k��,5.5,��
2017/06/08,20:40,1.010,1.603,1.072,1.912,1.311,0.539,0.983,0.905,��,5.0,��
2017/06/08,20:50,1.010,1.606,1.073,1.913,1.311,0.538,0.983,0.906,��,5.1,��
2017/06/08,21:00,1.008,1.608,1.074,1.911,1.314,0.538,0.981,0.906,���k��,5.4,��
2017/06/08,21:10,1.010,1.606,1.075,1.909,1.312,0.539,0.983,0.905,���k��,4.2,��
2017/06/08,21:20,1.008,1.605,1.074,1.910,1.313,0.537,0.983,0.905,���k��,4.7,��
2017/06/08,21:30,1.007,1.605,1.073,1.911,1.312,0.539,0.983,0.908,�k��,6.6,��
2017/06/08,21:40,1.005,1.607,1.074,1.910,1.313,0.536,0.983,0.905,���k��,6.7,��
2017/06/08,21:50,1.008,1.605,1.074,1.909,1.314,0.538,0.982,0.907,���k��,6.2,��
2017/06/08,22:00,1.008,1.607,1.074,1.914,1.312,0.537,0.983,0.907,���k��,4.1,��
2017/06/08,22:10,1.008,1.603,1.075,1.912,1.315,0.537,0.981,0.906,��,3.6,��
2017/06/08,22:20,1.006,1.605,1.076,1.908,1.316,0.538,0.983,0.907,��,3.8,��
2017/06/08,22:30,1.008,1.604,1.074,1.909,1.314,0.537,0.982,0.906,��,4.7,��
2017/06/08,22:40,1.007,1.606,1.076,1.910,1.313,0.537,0.982,0.905,���k��,4.6,��
2017/06/08,22:50,1.008,1.604,1.074,1.911,1.314,0.537,0.982,0.903,��,5.0,��
2017/06/08,23:00,1.007,1.605,1.075,1.913,1.313,0.536,0.980,0.906,��,4.4,��
2017/06/08,23:10,1.008,1.603,1.075,1.910,1.313,0.537,0.982,0.906,���k��,4.4,��
2017/06/08,23:20,1.008,1.606,1.072,1.912,1.313,0.537,0.983,0.908,�k��,2.3,��
2017/06/08,23:30,1.007,1.602,1.074,1.913,1.313,0.538,0.984,0.906,�k�k��,3.0,��
2017/06/08,23:40,1.007,1.606,1.074,1.911,1.311,0.538,0.982,0.906,�k��,2.2,��
2017/06/08,23:50,1.007,1.606,1.074,1.912,1.313,0.537,0.981,0.906,�k�k��,3.3,��
